Home   Weather   New York   Past weeks
Flag for USA

Past Weather in New York, New York, USA — Yesterday and Last 2 Weeks

Now
48 °F

Mostly cloudy.


Feels Like: 45 °F
Forecast: 60 / 47 °F
Wind: 6 mph from North

Location: New York City - Central Park

Current Time: Apr 4, 2020 at 9:51:51 pm

Latest Report: Apr 4, 2020 at 8:51 pm


Visibility: 10 mi

Pressure: 30.02 "Hg

Humidity: 77%

Dew Point: 41 °F

Location of New YorkLocation

Past Weather in New York — Graph

°F

New York Temperature Yesterday

Maximum temperature yesterday: 52 °F (at 5:51 pm)
Minimum temperature yesterday: 45 °F (at 7:51 am)
Average temperature yesterday: 49 °F

High & Low Weather Summary for the Past Weeks

 TemperatureHumidityPressure
High74 °F (Mar 20, 7:51 pm)97% (Mar 23, 5:51 pm)30.69 "Hg (Mar 23, 5:51 pm)
Low33 °F (Mar 22, 7:51 am)16% (Mar 27, 7:51 pm)29.58 "Hg (Apr 3, 3:51 am)
Average46 °F66%30.02 "Hg
* Reported Mar 20 7:51 pm — Apr 4 7:51 pm, New York. Weather by CustomWeather, © 2020

Note: Actual official high and low records may vary slightly from our data, if they occured in-between our weather recording intervals... More about our weather records

New York Weather History for the Previous 24 Hours

Scroll right to see more
 ConditionsComfort  
Time TempWeatherWind HumidityBarometerVisibility
7:51 pm
Sat, Apr 4
49 °FOvercast.9 mph71%30.00 "Hg10 mi
6:51 pm54 °FOvercast.No wind64%29.98 "Hg10 mi
5:51 pm59 °FOvercast.No wind48%29.97 "Hg10 mi
4:51 pm61 °FOvercast.No wind42%29.96 "Hg10 mi
3:51 pm60 °FPassing clouds.5 mph46%29.96 "Hg10 mi
1:51 pm59 °FPassing clouds.No wind49%30.00 "Hg10 mi
1:21 pm57 °FPartly sunny.5 mph55%30.03 "Hg10 mi
12:51 pm55 °FPartly sunny.No wind57%30.01 "Hg10 mi
11:51 am51 °FOvercast.6 mph66%30.01 "Hg10 mi
10:51 am50 °FOvercast.5 mph68%30.02 "Hg10 mi
9:51 am48 °FMostly cloudy.8 mph80%30.01 "Hg10 mi
9:03 am46 °FLight rain. Fog.8 mph89%30.02 "Hg6 mi
8:51 am47 °FLight rain. Cloudy.6 mph83%29.99 "Hg3 mi
8:11 am46 °FLight rain. Mostly cloudy.6 mph89%30.01 "Hg8 mi
8:01 am46 °FLight rain. Fog.12 mph89%30.00 "Hg4 mi
7:36 am46 °FFog.7 mph89%29.99 "Hg6 mi
6:51 am46 °FMostly cloudy.10 mph89%29.95 "Hg10 mi
6:34 am46 °FLight rain. Fog.6 mph89%29.96 "Hg5 mi
6:20 am47 °FLight rain. Fog.7 mph90%29.96 "Hg3 mi
5:51 am47 °FLight rain. Fog.3 mph86%29.92 "Hg4 mi
4:51 am49 °FOvercast.7 mph74%29.90 "Hg10 mi
3:51 am50 °FOvercast.7 mph71%29.88 "Hg10 mi
2:51 am50 °FMostly cloudy.7 mph68%29.87 "Hg10 mi
1:51 am50 °FOvercast.12 mph68%29.87 "Hg10 mi
12:51 am51 °FOvercast.10 mph69%29.87 "Hg10 mi
11:58 pm
Fri, Apr 3
50 °FMostly cloudy.8 mph74%29.89 "Hg10 mi
10:51 pm51 °FOvercast.14 mph71%29.85 "Hg10 mi
9:51 pm51 °FOvercast.8 mph71%29.84 "Hg10 mi
Weather by CustomWeather, © 2020

See weather overview

Advertising